Weather in Nizhnecheremoshnoye

Russia / Novosibirsk Oblast     53°57′15″N   78°53′47″E
temp.,
°C
wind,
m/s
gust,
m/s
humid.,
%
clouds,
%
prec.,
mm/h
press.,
hPa
HPBL,
m
28 february, sun
sun2801:00−29s349811 0.0 103755
04:00−29sse449418 0.0 103670
07:00−28se469616 0.0 103586
10:00−25se5108994 0.0 1032222
13:00−20se599097 0.0 1029292
16:00−15se61094100 0.2 1026418
19:00−11se41094100 0.5 1022388
22:00−10ese51094100 0.2 1018287
1 march, mon
mon101:00−7se5995100 0.6 1014347
04:00−5se5996100 1.7 1010358
07:00−2sse51197100 3.3 1007505
10:00+1sw71399100 1.1 1005604
13:000sw81399100 1.9 1005691
16:00+1sw71296100 0.1 1005813
19:00−1wsw71295100 0.4 1006628
22:00−2w5896100 0.7 1008375
2 march, tue
tue201:00−10w359797 0.8 101178
04:00−13w469698 0.1 1014160
07:00−16w349793 0.2 101773
10:00−18wsw349899 0.0 1018111
13:00−15sw3494100 0.1 1019261
16:00−13ssw3493100 0.0 1018371
19:00−16ssw2296100 0.1 101720
22:00−15s229699 0.1 101645
3 march, wed
wed301:00−15s1296100 0.3 101620
04:00−15sw1197100 0.2 101520
07:00−15wsw1297100 0.6 101627
10:00−14wsw2396100 0.3 1016130
13:00−12wsw359199 0.4 1018467
16:00−11wsw4690100 0.1 1020579
19:00−13sw4795100 0.1 1021193
22:00−19ssw459895 0.0 102284
4 march, thu
thu401:00−18s479793 0.0 1022134
04:00−15s599494 0.0 1021242
07:00−16s5109496 0.0 1021224
10:00−13s61190100 0.0 1019315
13:00−11s71186100 0.0 1017400
16:00−8s71385100 0.0 1015452
19:00−8sse71387100 0.0 1013368
22:00−8sse6138796 0.0 1011347